Regional Weather Roundup
Issued by NWS

Home | Current Version | Previous Version | Graphics & Text | Print | Product List | Glossary On
Versions: 1 2 3 4 5 6 7 8 9 10 11 12 13 14 15 16 17 18 19 20 21 22 23 24 25 26 27 28 29 30 31 32 33 34 35 36 37 38 39 40 41 42 43 44 45 46 47 48 49 50
000
ASUS43 KDTX 312310
RWRMI
MICHIGAN HOURLY REGIONAL WEATHER ROUNDUP
NATIONAL WEATHER SERVICE DETROIT/PONTIAC MI
700 PM EDT MON AUG 31 2015

NOTE: "FAIR" INDICATES FEW OR NO CLOUDS BELOW 12,000 FEET WITH NO
SIGNIFICANT WEATHER AND/OR OBSTRUCTION TO VISIBILITY.

MIZ047>049-052>055-059>063-066>070-074>076-081>083-010000-
SOUTHEAST LOWER MICHIGAN

CITY           SKY/WX    TMP DP  RH WIND       PRES   REMARKS
ADRIAN         SUNNY     83  64  52 W3        30.05S
ALMA           SUNNY     77  68  74 SW3       30.05S
ANN ARBOR      SUNNY     82  67  60 W6        30.04S
BAD AXE        SUNNY     75  66  71 W3        30.05S
DETROIT CITY   SUNNY     83  64  52 NW6       30.04R
DETROIT        MOSUNNY   83  67  58 W3        30.04S
FLINT          SUNNY     81  65  58 W6        30.05S
GROSSE ILE     SUNNY     79  72  78 CALM      30.03S
HILLSDALE      SUNNY     82  66  57 W6        30.07R
HOWELL         SUNNY     79  65  62 W5        30.05S

CITY           SKY/WX    TMP DP  RH WIND       PRES   REMARKS
JACKSON        SUNNY     79  69  71 W3        30.06R
LAMBERTVILLE   SUNNY     85  68  56 CALM      30.04S
LANSING        SUNNY     79  67  66 SW7       30.06R
LAPEER         NOT AVBL
MASON          SUNNY     80  64  59 W3        30.06S
MONROE         SUNNY     84  67  57 W3        30.03S
MT. CLEMENS    SUNNY     76  67  72 E3        30.03R
PONTIAC        SUNNY     80  64  58 SW6       30.05R
PORT HOPE        N/A     70  67  90 E7        30.03R
PORT HURON     SUNNY     77  68  73 CALM      30.04S
TRI CITIES     SUNNY     77  67  71 SW9       30.05R
YPSILANTI      MOSUNNY   85  70  60 N5        30.05R
$$
MIZ043>046-050>051-056>058-064>065-071>073-077>080-010000-
SOUTHWEST LOWER MICHIGAN

CITY           SKY/WX    TMP DP  RH WIND       PRES   REMARKS
BATTLE CREEK   SUNNY     81  68  64 W5        30.06S
BENTON HARBOR  SUNNY     78  67  68 CALM      30.03F
BIG RAPIDS     MOSUNNY   75  67  76 SW3       30.04S
COLDWATER      SUNNY     82  67  62 NW3       30.05S
HOLLAND        SUNNY     76  66  71 W5        30.05S
GRAND RAPIDS   SUNNY     80  67  64 W5        30.05R
KALAMAZOO      SUNNY     81  66  60 W6        30.06R
MARSHALL       SUNNY     81  68  65 W5        30.06R
MUSKEGON       PTSUNNY   74  64  71 SW5       30.04F
$$
MIZ016>042-010000-
NORTHERN LOWER MICHIGAN

CITY           SKY/WX    TMP DP  RH WIND       PRES   REMARKS
ALPENA         SUNNY     71  65  81 VRB5      30.01S
BEAVER ISLAND  SUNNY     70  65  84 SW8       30.00S
BELLAIRE       SUNNY     81  65  58 S3        30.00R
CADILLAC       SUNNY     75  67  74 SW9       30.04S
CHARLEVOIX     SUNNY     73  67  82 W9        30.03S
FRANKFORT      CLEAR     72  66  83 S7        30.02S
GAYLORD        SUNNY     79  63  57 SW8       30.03S
GRAYLING       SUNNY     80  65  60 CALM      30.03S
HARBOR SPRINGS SUNNY     73  66  79 CALM      30.00S
HOUGHTON LAKE  SUNNY     79  62  56 SW5       30.04R
MANISTEE       SUNNY     73  64  73 S7        30.03S
OSCODA         SUNNY     77  66  70 S7        30.00R
PELLSTON       SUNNY     75  67  76 W6        30.01R
TRAVERSE CITY  SUNNY     81  66  60 SW5       29.99R
$$
MIZ007>008-015-010000-
EASTERN UPPER MICHIGAN

CITY           SKY/WX    TMP DP  RH WIND       PRES   REMARKS
KINROSS        SUNNY     73  64  73 SW7       30.00S
MACKINAC ISLAN SUNNY     70  65  85 SW7       30.00S
NEWBERRY       CLOUDY    67  64  91 S15       29.97F FOG
S. S. MARIE    SUNNY     74  63  68 SW9       29.98S
$$
MIZ004>006-011>014-085-010000-
CENTRAL UPPER MICHIGAN

CITY           SKY/WX    TMP DP  RH WIND       PRES   REMARKS
MANISTIQUE     SUNNY     66  64  91 SW10      29.98R FOG
ESCANABA       SUNNY     72  64  78 S13G20    29.94S
MENOMINEE      SUNNY     77  66  69 SW9       29.96S
SAWYER-GWINN   SUNNY     82  66  57 SW12      29.93S
$$
MIZ001>003-009>011-084-010000-
WESTERN UPPER MICHIGAN

CITY           SKY/WX    TMP DP  RH WIND       PRES   REMARKS
IRON MOUNTAIN  SUNNY     81  63  54 SW6       29.94R
HOUGHTON       SUNNY     81  67  62 SE3       29.87R
IRONWOOD       SUNNY     77  64  65 S9        29.87S
$$

ABBREVIATIONS USED IN REMARKS
   TC - TEMPERATURE IN CELSIUS
  WCI - WIND CHILL INDEX
   HX - HEAT INDEX
  VSB - VISIBILITY



USA.gov is the U.S. government's official web portal to all federal, state and local government web resources and services.